This is the latest recevied weather packets stored in our database for station/object KB0BS-13. If no packets are shown the sender has not sent any weather packets the latest 10 day(s).
| Time | Temp. | Humidity | Pressure | Rain* | Wind** | Luminosity | Snow |
|---|---|---|---|---|---|---|---|
| 1777411009 | 8.33° C | 91% | 1010.2 hPa | 0 mm | - | 29 W/m² | - |
| 1777410709 | 8.33° C | 92% | 1010.3 hPa | 0 mm | - | 38 W/m² | - |
| 1777410404 | 8.33° C | 91% | 1010.1 hPa | 0 mm | - | 38 W/m² | - |
| 1777410102 | 8.33° C | 91% | 1010.1 hPa | 0 mm | - | 40 W/m² | - |
| 1777409798 | 8.89° C | 92% | 1009.8 hPa | 0 mm | - | 37 W/m² | - |
| 1777409494 | 8.89° C | 92% | 1009.7 hPa | 0 mm | - | 56 W/m² | - |
| 1777409189 | 8.89° C | 91% | 1009.7 hPa | 0 mm | - | 133 W/m² | - |
| 1777408886 | 8.89° C | 92% | 1009.5 hPa | 0 mm | - | 168 W/m² | - |
| 1777408582 | 8.89° C | 93% | 1009.7 hPa | 0 mm | - | 154 W/m² | - |
| 1777408278 | 8.89° C | 92% | 1009.6 hPa | 0 mm | - | 102 W/m² | - |
| 1777407978 | 8.89° C | 92% | 1009.6 hPa | 0 mm | - | 60 W/m² | - |
| 1777407676 | 8.89° C | 93% | 1009.2 hPa | 0 mm | - | 154 W/m² | - |
| 1777407375 | 8.89° C | 94% | 1009.3 hPa | 0 mm | - | 127 W/m² | - |
| 1777407070 | 8.33° C | 94% | 1009.3 hPa | 0 mm | - | 158 W/m² | - |
| 1777406766 | 8.33° C | 95% | 1009.4 hPa | 0 mm | - | 55 W/m² | - |
| 1777406466 | 8.33° C | 94% | 1009.1 hPa | 0 mm | - | 82 W/m² | - |
| 1777406161 | 8.33° C | 95% | 1009.1 hPa | 0 mm | - | 58 W/m² | - |
| 1777405857 | 8.33° C | 94% | 1009.1 hPa | 0 mm | - | 65 W/m² | - |
| 1777405553 | 8.33° C | 94% | 1008.9 hPa | 0 mm | - | 68 W/m² | - |
| 1777405251 | 8.33° C | 93% | 1008.9 hPa | 0 mm | - | 64 W/m² | - |
| 1777404949 | 8.33° C | 93% | 1008.8 hPa | 0 mm | - | 75 W/m² | - |
| 1777404645 | 8.33° C | 94% | 1008.7 hPa | 0 mm | - | 85 W/m² | - |
| 1777404342 | 8.33° C | 95% | 1008.6 hPa | 0 mm | - | 125 W/m² | - |
| 1777404038 | 8.33° C | 95% | 1008.5 hPa | 0 mm | - | 111 W/m² | - |
| 1777403734 | 8.33° C | 94% | 1008.4 hPa | 0 mm | - | 78 W/m² | - |
* Rain latest hour (hover to see other rain measurements)
** Current wind speed in m/s (hover to see current wind gust speed)